Time,TemperatureF,DewpointF,PressureIn,WindDirection,WindDirectionDegrees,WindSpeedMPH,WindSpeedGustMPH,Humidity,HourlyPrecipIn,Conditions,Clouds,dailyrainin,SolarRadiationWatts/m^2,SoftwareType,DateUTC
2013-12-22 00:22:00,20.0,16.0,-100.00,North,353,4.0,8.0,85,0.00,,,0.00,0.000000,,2013-12-22 07:22:00,
2013-12-22 00:32:00,20.0,16.0,-100.00,North,353,4.0,8.0,85,0.00,,,0.00,0.000000,,2013-12-22 07:32:00,
2013-12-22 00:42:00,20.0,16.0,-100.00,North,353,4.0,8.0,85,0.00,,,0.00,0.000000,,2013-12-22 07:42:00,
2013-12-22 00:52:00,20.0,16.0,-100.00,North,353,4.0,8.0,85,0.00,,,0.00,0.000000,,2013-12-22 07:52:00,
2013-12-22 01:22:00,19.0,16.0,-100.00,North,359,2.0,8.0,86,0.00,,,0.00,0.000000,,2013-12-22 08:22:00,
2013-12-22 01:32:00,19.0,16.0,-100.00,North,359,2.0,8.0,86,0.00,,,0.00,0.000000,,2013-12-22 08:32:00,
2013-12-22 01:42:00,19.0,16.0,-100.00,North,359,2.0,8.0,86,0.00,,,0.00,0.000000,,2013-12-22 08:42:00,
2013-12-22 01:52:00,19.0,16.0,-100.00,North,359,2.0,8.0,86,0.00,,,0.00,0.000000,,2013-12-22 08:52:00,
2013-12-22 02:22:00,19.0,13.0,-100.00,NNE,15,5.0,9.0,78,0.00,,,0.00,0.000000,,2013-12-22 09:22:00,
2013-12-22 02:33:00,19.0,13.0,-100.00,NNE,15,5.0,9.0,78,0.00,,,0.00,0.000000,,2013-12-22 09:33:00,
2013-12-22 02:43:00,19.0,13.0,-100.00,NNE,15,5.0,9.0,78,0.00,,,0.00,0.000000,,2013-12-22 09:43:00,
2013-12-22 02:53:00,19.0,13.0,-100.00,NNE,15,5.0,9.0,78,0.00,,,0.00,0.000000,,2013-12-22 09:53:00,
2013-12-22 03:23:00,19.0,14.0,-100.00,NE,36,3.0,8.0,82,0.00,,,0.00,0.000000,,2013-12-22 10:23:00,
2013-12-22 03:33:00,19.0,14.0,-100.00,NE,36,3.0,8.0,82,0.00,,,0.00,0.000000,,2013-12-22 10:33:00,
2013-12-22 03:42:00,19.0,14.0,-100.00,NE,36,3.0,8.0,82,0.00,,,0.00,0.000000,,2013-12-22 10:42:00,
2013-12-22 03:53:00,19.0,14.0,-100.00,NE,36,3.0,8.0,82,0.00,,,0.00,0.000000,,2013-12-22 10:53:00,
2013-12-22 04:22:00,18.0,14.0,-100.00,North,4,4.0,9.0,85,0.00,,,0.00,0.000000,,2013-12-22 11:22:00,
2013-12-22 04:33:00,18.0,14.0,-100.00,North,4,4.0,9.0,85,0.00,,,0.00,0.000000,,2013-12-22 11:33:00,
2013-12-22 04:42:00,18.0,14.0,-100.00,North,4,4.0,9.0,85,0.00,,,0.00,0.000000,,2013-12-22 11:42:00,
2013-12-22 04:52:00,18.0,14.0,-100.00,North,4,4.0,9.0,85,0.00,,,0.00,0.000000,,2013-12-22 11:52:00,
2013-12-22 05:22:00,17.0,13.0,-100.00,NE,48,3.0,8.0,84,0.00,,,0.00,0.000000,,2013-12-22 12:22:00,
2013-12-22 05:32:00,17.0,13.0,-100.00,NE,48,3.0,8.0,84,0.00,,,0.00,0.000000,,2013-12-22 12:32:00,
2013-12-22 05:42:00,17.0,13.0,-100.00,NE,48,3.0,8.0,84,0.00,,,0.00,0.000000,,2013-12-22 12:42:00,
2013-12-22 05:52:00,17.0,13.0,-100.00,NE,48,3.0,8.0,84,0.00,,,0.00,0.000000,,2013-12-22 12:52:00,
2013-12-22 06:21:00,16.0,11.0,-100.00,North,4,4.0,6.0,82,0.00,,,0.00,0.000000,,2013-12-22 13:21:00,
2013-12-22 06:32:00,16.0,11.0,-100.00,North,4,4.0,6.0,82,0.00,,,0.00,0.000000,,2013-12-22 13:32:00,
2013-12-22 06:42:00,16.0,11.0,-100.00,North,4,4.0,6.0,82,0.00,,,0.00,0.000000,,2013-12-22 13:42:00,
2013-12-22 06:52:00,16.0,11.0,-100.00,North,4,4.0,6.0,82,0.00,,,0.00,0.000000,,2013-12-22 13:52:00,
2013-12-22 07:21:00,14.0,8.0,-100.00,North,357,3.0,6.0,78,0.00,,,0.00,0.000000,,2013-12-22 14:21:00,
2013-12-22 07:32:00,14.0,8.0,-100.00,North,357,3.0,6.0,78,0.00,,,0.00,0.000000,,2013-12-22 14:32:00,
2013-12-22 07:42:00,14.0,8.0,-100.00,North,357,3.0,6.0,78,0.00,,,0.00,0.000000,,2013-12-22 14:42:00,
2013-12-22 07:52:00,14.0,8.0,-100.00,North,357,3.0,6.0,78,0.00,,,0.00,0.000000,,2013-12-22 14:52:00,
2013-12-22 08:22:00,18.0,12.0,-100.00,ENE,76,2.0,9.0,77,0.00,,,0.00,26.000000,,2013-12-22 15:22:00,
2013-12-22 08:33:00,18.0,12.0,-100.00,ENE,76,2.0,9.0,77,0.00,,,0.00,26.000000,,2013-12-22 15:33:00,
2013-12-22 08:43:00,18.0,12.0,-100.00,ENE,76,2.0,9.0,77,0.00,,,0.00,26.000000,,2013-12-22 15:43:00,
2013-12-22 08:53:00,18.0,12.0,-100.00,ENE,76,2.0,9.0,77,0.00,,,0.00,26.000000,,2013-12-22 15:53:00,
2013-12-22 09:23:00,23.0,13.0,-100.00,SSE,161,2.0,4.0,65,0.00,,,0.00,156.000000,,2013-12-22 16:23:00,
2013-12-22 09:33:00,23.0,13.0,-100.00,SSE,161,2.0,4.0,65,0.00,,,0.00,156.000000,,2013-12-22 16:33:00,
2013-12-22 09:52:00,23.0,13.0,-100.00,SSE,161,2.0,4.0,65,0.00,,,0.00,156.000000,,2013-12-22 16:52:00,
2013-12-22 10:22:00,27.0,11.0,-100.00,SSE,151,4.0,8.0,50,0.00,,,0.00,296.000000,,2013-12-22 17:22:00,
2013-12-22 10:33:00,27.0,11.0,-100.00,SSE,151,4.0,8.0,50,0.00,,,0.00,296.000000,,2013-12-22 17:33:00,
2013-12-22 10:42:00,27.0,11.0,-100.00,SSE,151,4.0,8.0,50,0.00,,,0.00,296.000000,,2013-12-22 17:42:00,
2013-12-22 10:52:00,27.0,11.0,-100.00,SSE,151,4.0,8.0,50,0.00,,,0.00,296.000000,,2013-12-22 17:52:00,
2013-12-22 11:21:00,29.0,12.0,-100.00,SSW,210,4.0,7.0,49,0.00,,,0.00,385.000000,,2013-12-22 18:21:00,
2013-12-22 11:33:00,29.0,12.0,-100.00,SSW,210,4.0,7.0,49,0.00,,,0.00,385.000000,,2013-12-22 18:33:00,
2013-12-22 11:42:00,29.0,12.0,-100.00,SSW,210,4.0,7.0,49,0.00,,,0.00,385.000000,,2013-12-22 18:42:00,
2013-12-22 11:52:00,29.0,12.0,-100.00,SSW,210,4.0,7.0,49,0.00,,,0.00,385.000000,,2013-12-22 18:52:00,
2013-12-22 12:21:00,33.0,11.0,-100.00,SSW,194,4.0,8.0,39,0.00,,,0.00,419.000000,,2013-12-22 19:21:00,
2013-12-22 12:32:00,33.0,11.0,-100.00,SSW,194,4.0,8.0,39,0.00,,,0.00,419.000000,,2013-12-22 19:32:00,
2013-12-22 12:42:00,33.0,11.0,-100.00,SSW,194,4.0,8.0,39,0.00,,,0.00,419.000000,,2013-12-22 19:42:00,
2013-12-22 12:52:00,33.0,11.0,-100.00,SSW,194,4.0,8.0,39,0.00,,,0.00,419.000000,,2013-12-22 19:52:00,
2013-12-22 13:22:00,33.0,10.0,-100.00,South,181,6.0,10.0,38,0.00,,,0.00,408.000000,,2013-12-22 20:22:00,
2013-12-22 13:32:00,33.0,10.0,-100.00,South,181,6.0,10.0,38,0.00,,,0.00,408.000000,,2013-12-22 20:32:00,
2013-12-22 13:42:00,33.0,10.0,-100.00,South,181,6.0,10.0,38,0.00,,,0.00,408.000000,,2013-12-22 20:42:00,
2013-12-22 13:52:00,33.0,10.0,-100.00,South,181,6.0,10.0,38,0.00,,,0.00,408.000000,,2013-12-22 20:52:00,
2013-12-22 14:22:00,33.0,11.0,-100.00,SSW,204,7.0,13.0,39,0.00,,,0.00,368.000000,,2013-12-22 21:22:00,
2013-12-22 14:33:00,33.0,11.0,-100.00,SSW,204,7.0,13.0,39,0.00,,,0.00,368.000000,,2013-12-22 21:33:00,
2013-12-22 14:43:00,33.0,11.0,-100.00,SSW,204,7.0,13.0,39,0.00,,,0.00,368.000000,,2013-12-22 21:43:00,
2013-12-22 14:53:00,33.0,11.0,-100.00,SSW,204,7.0,13.0,39,0.00,,,0.00,368.000000,,2013-12-22 21:53:00,
2013-12-22 15:23:00,34.0,12.0,-100.00,SW,236,8.0,13.0,39,0.00,,,0.00,313.000000,,2013-12-22 22:23:00,
2013-12-22 15:33:00,34.0,12.0,-100.00,SW,236,8.0,13.0,39,0.00,,,0.00,313.000000,,2013-12-22 22:33:00,
2013-12-22 15:42:00,34.0,12.0,-100.00,SW,236,8.0,13.0,39,0.00,,,0.00,313.000000,,2013-12-22 22:42:00,
2013-12-22 15:53:00,34.0,12.0,-100.00,SW,236,8.0,13.0,39,0.00,,,0.00,313.000000,,2013-12-22 22:53:00,
2013-12-22 16:22:00,32.0,14.0,-100.00,West,265,6.0,12.0,46,0.00,,,0.00,157.000000,,2013-12-22 23:22:00,
2013-12-22 16:33:00,32.0,14.0,-100.00,West,265,6.0,12.0,46,0.00,,,0.00,157.000000,,2013-12-22 23:33:00,
2013-12-22 16:42:00,32.0,14.0,-100.00,West,265,6.0,12.0,46,0.00,,,0.00,157.000000,,2013-12-22 23:42:00,
2013-12-22 16:53:00,32.0,14.0,-100.00,West,265,6.0,12.0,46,0.00,,,0.00,157.000000,,2013-12-22 23:53:00,
2013-12-22 17:22:00,29.0,12.0,-100.00,WNW,286,3.0,12.0,48,0.00,,,0.00,82.000000,,2013-12-23 00:22:00,
2013-12-22 17:32:00,29.0,12.0,-100.00,WNW,286,3.0,12.0,48,0.00,,,0.00,82.000000,,2013-12-23 00:32:00,
2013-12-22 17:42:00,29.0,12.0,-100.00,WNW,286,3.0,12.0,48,0.00,,,0.00,82.000000,,2013-12-23 00:42:00,
2013-12-22 17:52:00,29.0,12.0,-100.00,WNW,286,3.0,12.0,48,0.00,,,0.00,82.000000,,2013-12-23 00:52:00,
2013-12-22 18:22:00,26.0,11.0,-100.00,NNE,21,2.0,5.0,53,0.00,,,0.00,1.000000,,2013-12-23 01:22:00,
2013-12-22 18:32:00,26.0,11.0,-100.00,NNE,21,2.0,5.0,53,0.00,,,0.00,1.000000,,2013-12-23 01:32:00,
2013-12-22 18:42:00,26.0,11.0,-100.00,NNE,21,2.0,5.0,53,0.00,,,0.00,1.000000,,2013-12-23 01:42:00,
2013-12-22 18:52:00,26.0,11.0,-100.00,NNE,21,2.0,5.0,53,0.00,,,0.00,1.000000,,2013-12-23 01:52:00,
2013-12-22 19:21:00,26.0,12.0,-100.00,NW,323,3.0,5.0,54,0.00,,,0.00,0.000000,,2013-12-23 02:21:00,
2013-12-22 19:32:00,26.0,12.0,-100.00,NW,323,3.0,5.0,54,0.00,,,0.00,0.000000,,2013-12-23 02:32:00,
2013-12-22 19:42:00,26.0,12.0,-100.00,NW,323,3.0,5.0,54,0.00,,,0.00,0.000000,,2013-12-23 02:42:00,
2013-12-22 19:52:00,26.0,12.0,-100.00,NW,323,3.0,5.0,54,0.00,,,0.00,0.000000,,2013-12-23 02:52:00,
2013-12-22 20:22:00,22.0,12.0,-100.00,NNE,13,5.0,6.0,64,0.00,,,0.00,0.000000,,2013-12-23 03:22:00,
2013-12-22 20:33:00,22.0,12.0,-100.00,NNE,13,5.0,6.0,64,0.00,,,0.00,0.000000,,2013-12-23 03:33:00,
2013-12-22 20:43:00,22.0,12.0,-100.00,NNE,13,5.0,6.0,64,0.00,,,0.00,0.000000,,2013-12-23 03:43:00,
2013-12-22 20:53:00,22.0,12.0,-100.00,NNE,13,5.0,6.0,64,0.00,,,0.00,0.000000,,2013-12-23 03:53:00,
2013-12-22 21:23:00,22.0,11.0,-100.00,NE,45,3.0,7.0,63,0.00,,,0.00,0.000000,,2013-12-23 04:23:00,
2013-12-22 21:33:00,22.0,11.0,-100.00,NE,45,3.0,7.0,63,0.00,,,0.00,0.000000,,2013-12-23 04:33:00,
2013-12-22 21:43:00,22.0,11.0,-100.00,NE,45,3.0,7.0,63,0.00,,,0.00,0.000000,,2013-12-23 04:43:00,
2013-12-22 21:52:00,22.0,11.0,-100.00,NE,45,3.0,7.0,63,0.00,,,0.00,0.000000,,2013-12-23 04:52:00,
2013-12-22 22:23:00,20.0,10.0,-100.00,NE,44,1.0,5.0,65,0.00,,,0.00,0.000000,,2013-12-23 05:23:00,
2013-12-22 22:33:00,20.0,10.0,-100.00,NE,44,1.0,5.0,65,0.00,,,0.00,0.000000,,2013-12-23 05:33:00,
2013-12-22 22:43:00,20.0,10.0,-100.00,NE,44,1.0,5.0,65,0.00,,,0.00,0.000000,,2013-12-23 05:43:00,
2013-12-22 22:52:00,20.0,10.0,-100.00,NE,44,1.0,5.0,65,0.00,,,0.00,0.000000,,2013-12-23 05:52:00,
2013-12-22 23:22:00,19.0,10.0,-100.00,NNE,18,5.0,6.0,67,0.00,,,0.00,0.000000,,2013-12-23 06:22:00,
2013-12-22 23:32:00,19.0,10.0,-100.00,NNE,18,5.0,6.0,67,0.00,,,0.00,0.000000,,2013-12-23 06:32:00,
2013-12-22 23:42:00,19.0,10.0,-100.00,NNE,18,5.0,6.0,67,0.00,,,0.00,0.000000,,2013-12-23 06:42:00,
2013-12-22 23:52:00,19.0,10.0,-100.00,NNE,18,5.0,6.0,67,0.00,,,0.00,0.000000,,2013-12-23 06:52:00,